Istanbul, Turkey

11:49 AM +03 on January 21, 2018 (GMT +0300)
Ataturk

Weather History for LTBA - June, 2012

Change the Weather History Date:

Monday, June 11, 2012

  Actual Average Record
Temperature  
Mean Temperature 72 °F -  
Max Temperature 78 °F 79 °F 88 °F (2013)
Min Temperature 65 °F 65 °F 57 °F (2005)
Cooling Degree Days 6    
Growing Degree Days 22 (Base 50)    
Moisture  
Dew Point 66 °F    
Average Humidity 80    
Maximum Humidity 100    
Minimum Humidity 61    
Precipitation  
Precipitation 0.00 in - - ()
Sea Level Pressure  
Sea Level Pressure 29.79 in    
Wind  
Wind Speed 6 mph ()    
Max Wind Speed 12 mph    
Max Gust Speed -    
Visibility 7.5 miles    
Events      
Averages and records for this station are not official NWS values.
T = Trace of Precipitation, MM = Missing Value Source: Averaged Metar Reports

Daily Weather History Graph

Daily Weather History Graph

Search for Another Location

Airport or City:

Trip Planner

Search our weather history database for the weather conditions in past years. The results will help you decide how hot, cold, wet, or windy it might be!

Date:

Astronomy

Jun. 11, 2012 Rise Set
Actual Time 5:32 AM EEST 8:36 PM EEST
Civil Twilight 4:58 AM EEST 9:10 PM EEST
Nautical Twilight 4:16 AM EEST 9:52 PM EEST
Astronomical Twilight 3:25 AM EEST 10:43 PM EEST
Moon 12:45 AM EEST (6/11) 1:04 PM EEST (6/11)
Length of Visible Light 16h 11m
Length of Day
15h 04m
Waning Gibbous, 51% of the Moon is Illuminated
Jun 11
Waning Gibbous
Jun 11
Last Quarter
Jun 19
New
Jun 27
First Quarter
Jul 3
Full

Hourly Weather History & Observations

Time (EEST) Temp. Dew Point Humidity Pressure Visibility Wind Dir Wind Speed Gust Speed Precip Events Conditions
12:20 AM 66.2 °F 64.4 °F 94% 29.83 in - North 9.2 mph - N/A   Clear
12:50 AM 68.0 °F 64.4 °F 88% 29.83 in - North 10.4 mph - N/A   Clear
1:20 AM 68.0 °F 66.2 °F 94% 29.83 in - North 11.5 mph - N/A   Clear
1:50 AM 68.0 °F 64.4 °F 88% 29.83 in - North 8.1 mph - N/A   Clear
2:20 AM 68.0 °F 66.2 °F 94% 29.83 in - North 6.9 mph - N/A   Clear
2:50 AM 68.0 °F 66.2 °F 94% 29.83 in - NNE 6.9 mph - N/A   Clear
3:00 AM 67 °F 65 °F 90% 29.83 in 12 mi NNE 6.9 mph - -  
3:20 AM 68.0 °F 64.4 °F 88% 29.83 in - NNE 5.8 mph - N/A   Clear
3:50 AM 68.0 °F 64.4 °F 88% 29.80 in - NNE 4.6 mph - N/A   Clear
4:20 AM 68.0 °F 66.2 °F 94% 29.80 in - NNE 5.8 mph - N/A   Clear
4:50 AM 66.2 °F 66.2 °F 100% 29.80 in - NNE 5.8 mph - N/A   Clear
5:20 AM 66.2 °F 64.4 °F 94% 29.83 in - North 6.9 mph - N/A   Clear
5:50 AM 66.2 °F 64.4 °F 94% 29.83 in - NNW 6.9 mph - N/A   Clear
6:20 AM 66.2 °F 64.4 °F 94% 29.83 in - NNW 6.9 mph - N/A   Clear
6:50 AM 68.0 °F 66.2 °F 94% 29.83 in - NNE 4.6 mph - N/A   Clear
7:20 AM 68.0 °F 66.2 °F 94% 29.83 in - North 4.6 mph - N/A   Clear
7:50 AM 69.8 °F 64.4 °F 83% 29.83 in - Variable 2.3 mph - N/A   Clear
8:20 AM 69.8 °F 64.4 °F 83% 29.83 in - Variable 2.3 mph - N/A   Clear
8:50 AM 69.8 °F 64.4 °F 83% 29.83 in - Variable 4.6 mph - N/A   Clear
9:00 AM 71 °F 65 °F 75% 29.83 in 6 mi SW 4.6 mph - -  
9:20 AM 71.6 °F 66.2 °F 83% 29.80 in - South 5.8 mph - N/A   Clear
9:50 AM 71.6 °F 66.2 °F 83% 29.80 in - South 4.6 mph - N/A   Clear
10:20 AM 71.6 °F 66.2 °F 83% 29.80 in - South 4.6 mph - N/A   Clear
10:50 AM 73.4 °F 66.2 °F 78% 29.80 in - South 5.8 mph - N/A   Clear
11:20 AM 73.4 °F 68.0 °F 83% 29.80 in - South 4.6 mph - N/A   Clear
11:50 AM 73.4 °F 68.0 °F 83% 29.80 in - SSW 4.6 mph - N/A   Clear
12:50 PM 73.4 °F 66.2 °F 78% 29.80 in - SW 4.6 mph - N/A   Clear
1:20 PM 73.4 °F 68.0 °F 83% 29.77 in - SSW 6.9 mph - N/A   Clear
1:50 PM 75.2 °F 68.0 °F 78% 29.77 in - SSW 6.9 mph - N/A   Clear
2:20 PM 75.2 °F 68.0 °F 78% 29.77 in - SW 6.9 mph - N/A   Clear
2:50 PM 77.0 °F 66.2 °F 69% 29.77 in - SW 6.9 mph - N/A   Clear
3:00 PM 76 °F 66 °F 63% 29.78 in 6 mi SW 6.9 mph - -  
3:20 PM 77.0 °F 66.2 °F 69% 29.77 in - SW 6.9 mph - N/A   Clear
3:50 PM 77.0 °F 66.2 °F 69% 29.77 in - SW 8.1 mph - N/A   Clear
4:20 PM 77.0 °F 66.2 °F 69% 29.74 in - SSW 6.9 mph - N/A   Clear
4:50 PM 77.0 °F 68.0 °F 74% 29.74 in - SW 6.9 mph - N/A   Clear
5:20 PM 77.0 °F 68.0 °F 74% 29.74 in - SW 6.9 mph - N/A   Clear
5:50 PM 77.0 °F 64.4 °F 65% 29.74 in - SW 6.9 mph - N/A   Clear
6:20 PM 77.0 °F 66.2 °F 69% 29.74 in - SSW 4.6 mph - N/A   Clear
6:50 PM 78.8 °F 64.4 °F 61% 29.74 in - Variable 2.3 mph - N/A   Clear
7:20 PM 77.0 °F 66.2 °F 69% 29.74 in - SSE 4.6 mph - N/A   Clear
7:50 PM 75.2 °F 66.2 °F 73% 29.74 in - South 4.6 mph - N/A   Clear
8:20 PM 75.2 °F 66.2 °F 73% 29.74 in - South 3.5 mph - N/A   Clear
8:50 PM 73.4 °F 64.4 °F 73% 29.74 in - SSW 2.3 mph - N/A   Clear
9:00 PM 74 °F 65 °F 65% 29.74 in 6 mi SSW 2.3 mph - -  
9:20 PM 75.2 °F 64.4 °F 69% 29.74 in - Variable 2.3 mph - N/A   Clear
9:50 PM 73.4 °F 64.4 °F 73% 29.74 in - Variable 2.3 mph - N/A   Clear
10:20 PM 75.2 °F 62.6 °F 65% 29.74 in - SE 3.5 mph - N/A   Clear
10:50 PM 73.4 °F 62.6 °F 69% 29.74 in - Variable 2.3 mph - N/A   Clear
11:20 PM 73.4 °F 64.4 °F 73% 29.74 in - Calm Calm - N/A   Clear
11:50 PM 71.6 °F 68.0 °F 88% 29.74 in - Variable 1.2 mph - N/A   Clear